Weather History for EINN - May, 2013

Change the Weather History Date:

Saturday, May 25, 2013

  Actual Average Record
Temperature  
Mean Temperature 51 °F -  
Max Temperature 57 °F 63 °F 82 °F (2012)
Min Temperature 45 °F 49 °F 41 °F (2006)
Degree Days  
Heating Degree Days 14    
Growing Degree Days 1 (Base 50)    
Moisture  
Dew Point 47 °F    
Average Humidity 84    
Maximum Humidity 94    
Minimum Humidity 55    
Precipitation  
Precipitation 0.04 in 0.08 in - ()
Sea Level Pressure  
Sea Level Pressure 30.19 in    
Wind  
Wind Speed 5 mph ()    
Max Wind Speed 12 mph    
Max Gust Speed -    
Visibility 7.4 miles    
Events Rain    
Averages and records for this station are not official NWS values.
T = Trace of Precipitation, MM = Missing Value Source: Averaged Metar Reports

Daily Weather History Graph

Daily Weather History Graph

Search for Another Location

Airport or City:

Trip Planner

Search our weather history database for the weather conditions in past years. The results will help you decide how hot, cold, wet, or windy it might be!

Date:

Astronomy

May. 25, 2013 Rise Set
Actual Time 5:24 AM IST 9:41 PM IST
Civil Twilight 4:38 AM IST 10:27 PM IST
Nautical Twilight 3:30 AM IST 11:36 PM IST
Astronomical Twilight 2:05 AM IST 1:00 AM IST
Moon 10:12 PM IST (5/25) 5:42 AM IST (5/25)
Length of Visible Light 17h 48m
Length of Day
16h 16m
Full, 100% of the Moon is Illuminated
May 25
Full
May 31
Last Quarter
Jun 8
New
Jun 16
First Quarter
Jun 23
Full

Hourly Weather History & Observations

Time (IST) Temp. Windchill Dew Point Humidity Pressure Visibility Wind Dir Wind Speed Gust Speed Precip Events Conditions
12:00 AM 46.4 °F 45.2 °F 42.8 °F 87% 30.24 in - SW 3.5 mph - N/A   Clear
12:30 AM 46.4 °F - 42.8 °F 87% 30.24 in - Variable 1.2 mph - N/A   Clear
1:00 AM 47 °F - 45 °F 89% 30.25 in 19 mi West 2.2 mph - -   Mostly Cloudy
1:00 AM 46.4 °F - 44.6 °F 93% 30.24 in - West 2.3 mph - N/A   Clear
1:30 AM 48.2 °F - 46.4 °F 93% 30.24 in - WSW 5.8 mph - N/A   Clear
2:00 AM 48.2 °F - 46.4 °F 93% 30.21 in - WSW 6.9 mph - N/A   Clear
2:30 AM 48.2 °F - 44.6 °F 87% 30.21 in - West 4.6 mph - N/A   Clear
3:00 AM 48.2 °F - 44.6 °F 87% 30.21 in - SW 3.5 mph - N/A   Clear
3:30 AM 46.4 °F 43.5 °F 44.6 °F 93% 30.21 in - WSW 5.8 mph - N/A   Clear
4:00 AM 46.4 °F 45.2 °F 44.6 °F 93% 30.21 in - WSW 3.5 mph - N/A   Clear
5:00 AM 46.4 °F - 44.6 °F 93% 30.21 in - Variable 2.3 mph - N/A   Clear
5:30 AM 46.4 °F - 44.6 °F 93% 30.18 in - Calm Calm - N/A   Clear
6:00 AM 46.4 °F 44.3 °F 44.6 °F 93% 30.18 in - SSE 4.6 mph - N/A   Clear
6:30 AM 46.4 °F 45.2 °F 44.6 °F 93% 30.18 in - ESE 3.5 mph - N/A   Clear
7:00 AM 47 °F - 44 °F 86% 30.21 in 19 mi SE 6.7 mph - -   Mostly Cloudy
7:00 AM 46.4 °F 43.5 °F 44.6 °F 93% 30.18 in - SE 5.8 mph - N/A   Clear
7:30 AM 46.4 °F 43.5 °F 44.6 °F 93% 30.18 in - ESE 5.8 mph - N/A   Clear
8:00 AM 48.2 °F - 44.6 °F 87% 30.18 in - ESE 5.8 mph - N/A   Clear
8:30 AM 48.2 °F - 44.6 °F 87% 30.21 in - ESE 6.9 mph - N/A   Clear
9:00 AM 50.0 °F - 44.6 °F 82% 30.21 in - ESE 8.1 mph - N/A   Clear
9:30 AM 51.8 °F - 44.6 °F 76% 30.21 in - ESE 9.2 mph - N/A   Clear
10:00 AM 53.6 °F - 44.6 °F 72% 30.21 in 6.2 mi ESE 8.1 mph - N/A   Mostly Cloudy
10:30 AM 55.4 °F - 42.8 °F 63% 30.21 in 6.2 mi SSE 10.4 mph - N/A   Mostly Cloudy
11:00 AM 55.4 °F - 42.8 °F 63% 30.21 in 6.2 mi SSE 9.2 mph - N/A   Mostly Cloudy
11:30 AM 55.4 °F - 42.8 °F 63% 30.18 in 6.2 mi South 8.1 mph - N/A   Mostly Cloudy
12:00 PM 55.4 °F - 42.8 °F 63% 30.18 in 6.2 mi South 9.2 mph - N/A   Mostly Cloudy
12:30 PM 57.2 °F - 42.8 °F 59% 30.18 in 6.2 mi SSE 10.4 mph - N/A   Mostly Cloudy
1:00 PM 56 °F - 44 °F 55% 30.20 in 19 mi SSE 8.9 mph - -   Mostly Cloudy
1:00 PM 57.2 °F - 44.6 °F 63% 30.18 in 6.2 mi SSE 9.2 mph - N/A   Mostly Cloudy
1:30 PM 57.2 °F - 44.6 °F 63% 30.18 in 6.2 mi WSW 8.1 mph - N/A   Mostly Cloudy
2:00 PM 57.2 °F - 48.2 °F 72% 30.18 in 6.2 mi WSW 9.2 mph - N/A   Light Drizzle
2:30 PM 55.4 °F - 50.0 °F 82% 30.18 in 6.2 mi WSW 11.5 mph - N/A   Light Drizzle
3:00 PM 55.4 °F - 50.0 °F 82% 30.18 in 6.2 mi West 9.2 mph - N/A Rain Light Rain
3:30 PM 55.4 °F - 50.0 °F 82% 30.18 in 6.2 mi WSW 9.2 mph - N/A Rain Light Rain
4:00 PM 55.4 °F - 50.0 °F 82% 30.18 in 6.2 mi WSW 8.1 mph - N/A Rain Light Rain
4:30 PM 55.4 °F - 50.0 °F 82% 30.18 in 6.2 mi WSW 8.1 mph - N/A Rain Light Rain
5:00 PM 53.6 °F - 50.0 °F 88% 30.18 in 6.2 mi WSW 9.2 mph - N/A Rain Light Rain
5:30 PM 53.6 °F - 50.0 °F 88% 30.18 in 6.2 mi WSW 9.2 mph - N/A Rain Light Rain
6:00 PM 53.6 °F - 50.0 °F 88% 30.18 in 6.2 mi WSW 8.1 mph - N/A Rain Light Rain
6:30 PM 53.6 °F - 50.0 °F 88% 30.18 in 5.6 mi WSW 8.1 mph - N/A Rain Light Rain
7:00 PM 53 °F - 51 °F 88% 30.19 in 6 mi West 6.7 mph - - Rain Light Rain
7:00 PM 53.6 °F - 50.0 °F 88% 30.18 in 6.2 mi West 6.9 mph - N/A Rain Light Rain
7:30 PM 53.6 °F - 50.0 °F 88% 30.18 in 6.2 mi West 4.6 mph - N/A   Mostly Cloudy
8:00 PM 53.6 °F - 50.0 °F 88% 30.18 in 6.2 mi West 5.8 mph - N/A Rain Light Rain
8:30 PM 53.6 °F - 50.0 °F 88% 30.18 in 6.2 mi WSW 3.5 mph - N/A Rain Light Rain
9:00 PM 51.8 °F - 50.0 °F 94% 30.18 in 6.2 mi SW 4.6 mph - N/A Rain Light Rain
9:30 PM 51.8 °F - 50.0 °F 94% 30.18 in 6.2 mi WSW 5.8 mph - N/A Rain Light Rain
10:00 PM 51.8 °F - 50.0 °F 94% 30.18 in 6.2 mi WSW 2.3 mph - N/A Rain Light Rain
10:30 PM 51.8 °F - 50.0 °F 94% 30.18 in 6.2 mi WSW 2.3 mph - N/A   Mostly Cloudy
11:00 PM 51.8 °F - 50.0 °F 94% 30.18 in 6.2 mi WSW 2.3 mph - N/A   Mostly Cloudy
11:30 PM 51.8 °F - 50.0 °F 94% 30.18 in 6.2 mi SW 2.3 mph - N/A   Mostly Cloudy